| time (UTC) | temp F | wind direction | speed MPH | gust MPH | rain 1hr in | rain 24hr in | rain mn in | humidity % | barometer mb |
| 20260507075527 | 55 | 281 | 0.0 | 0.0 | 0.00 | 0.08 | 0.08 | 63 | 1011.6 |
| 20260507075024 | 55 | 236 | 0.0 | 0.0 | 0.00 | 0.08 | 0.08 | 64 | 1011.5 |
| 20260507074521 | 55 | 233 | 0.0 | 0.0 | 0.00 | 0.08 | 0.08 | 63 | 1011.3 |
| 20260507074020 | 55 | 228 | 2.0 | 2.0 | 0.00 | 0.08 | 0.08 | 63 | 1011.5 |
| 20260507073515 | 55 | 241 | 1.0 | 3.0 | 0.00 | 0.08 | 0.08 | 63 | 1011.5 |
| 20260507073012 | 55 | 234 | 1.0 | 1.0 | 0.00 | 0.08 | 0.08 | 63 | 1011.5 |
| 20260507072509 | 55 | 223 | 0.0 | 1.0 | 0.00 | 0.08 | 0.08 | 64 | 1011.4 |
| 20260507072006 | 55 | 232 | 1.0 | 2.0 | 0.00 | 0.08 | 0.08 | 64 | 1011.2 |
| 20260507071504 | 55 | 254 | 1.0 | 2.0 | 0.00 | 0.08 | 0.08 | 66 | 1011.1 |
| 20260507071000 | 54 | 311 | 0.0 | 1.0 | 0.00 | 0.08 | 0.08 | 67 | 1011.1 |
| 20260507070457 | 55 | 314 | 2.0 | 3.0 | 0.00 | 0.08 | 0.08 | 69 | 1011.2 |
| 20260507065954 | 55 | 245 | 2.0 | 3.0 | 0.00 | 0.08 | 0.08 | 70 | 1011.2 |
| 20260507065451 | 55 | 239 | 2.0 | 2.0 | 0.00 | 0.08 | 0.08 | 70 | 1011.5 |
| 20260507064948 | 55 | 274 | 1.0 | 2.0 | 0.00 | 0.08 | 0.08 | 71 | 1011.6 |
| 20260507064446 | 55 | 258 | 1.0 | 2.0 | 0.00 | 0.08 | 0.08 | 71 | 1011.5 |
| 20260507063943 | 55 | 235 | 0.0 | 0.0 | 0.00 | 0.08 | 0.08 | 71 | 1011.2 |
| 20260507063440 | 55 | 287 | 0.0 | 1.0 | 0.00 | 0.08 | 0.08 | 71 | 1010.9 |
| 20260507062937 | 56 | 355 | 0.0 | 2.0 | 0.00 | 0.08 | 0.08 | 71 | 1011.0 |
| 20260507062434 | 56 | 262 | 0.0 | 1.0 | 0.05 | 0.08 | 0.08 | 71 | 1011.1 |
| 20260507061932 | 56 | 30 | 0.0 | 2.0 | 0.05 | 0.08 | 0.08 | 70 | 1011.2 |
| 20260507061430 | 56 | 257 | 0.0 | 1.0 | 0.00 | 0.07 | 0.07 | 70 | 1011.2 |
| 20260507060928 | 56 | 236 | 0.0 | 0.0 | 0.00 | 0.07 | 0.07 | 70 | 1011.5 |
| 20260507060424 | 57 | 228 | 1.0 | 2.0 | 0.00 | 0.07 | 0.07 | 69 | 1011.4 |
| 20260507055921 | 57 | 1 | 0.0 | 0.0 | 0.00 | 0.07 | 0.07 | 69 | 1011.3 |
| 20260507055417 | 57 | 225 | 0.0 | 0.0 | 0.00 | 0.07 | 0.07 | 68 | 1011.6 |
| 20260507054914 | 57 | 223 | 0.0 | 0.0 | 0.07 | 0.07 | 0.07 | 68 | 1011.3 |
| 20260507054409 | 57 | 213 | 0.0 | 0.0 | 0.07 | 0.07 | 0.07 | 68 | 1011.2 |
| 20260507053907 | 57 | 234 | 1.0 | 1.0 | 0.12 | 0.06 | 0.06 | 67 | 1011.7 |
| 20260507053404 | 58 | 224 | 2.0 | 2.0 | 0.19 | 0.06 | 0.06 | 66 | 1011.4 |
| 20260507052903 | 58 | 226 | 0.0 | 1.0 | 0.12 | 0.04 | 0.04 | 66 | 1011.4 |
| 20260507052400 | 59 | 240 | 1.0 | 1.0 | 0.12 | 0.03 | 0.03 | 66 | 1011.5 |
| 20260507051857 | 59 | 296 | 5.0 | 6.0 | 0.12 | 0.02 | 0.02 | 66 | 1011.8 |
| 20260507051355 | 60 | 352 | 4.0 | 7.0 | 0.05 | 0.01 | 0.01 | 65 | 1011.5 |
| 20260507050851 | 61 | 267 | 3.0 | 3.0 | 0.00 | 0.00 | 0.00 | 62 | 1011.9 |
| 20260507050348 | 61 | 251 | 3.0 | 4.0 | 0.00 | 0.00 | 0.00 | 60 | 1011.9 |
| 20260507045845 | 61 | 256 | 2.0 | 2.0 | 0.00 | 0.00 | 0.00 | 60 | 1011.2 |
| 20260507045341 | 62 | 266 | 2.0 | 2.0 | 0.00 | 0.00 | 0.00 | 59 | 1011.2 |
| 20260507044838 | 62 | 228 | 1.0 | 1.0 | 0.00 | 0.00 | 0.00 | 58 | 1011.2 |
| 20260507044335 | 62 | 244 | 2.0 | 2.0 | 0.00 | 0.00 | 0.00 | 58 | 1011.3 |
| 20260507043831 | 62 | 292 | 2.0 | 3.0 | 0.00 | 0.00 | 0.00 | 58 | 1011.3 |
| 20260507043328 | 63 | 250 | 3.0 | 3.0 | 0.00 | 0.00 | 0.00 | 59 | 1011.0 |
| 20260507042824 | 63 | 16 | 7.0 | 11.0 | 0.00 | 0.00 | 0.00 | 59 | 1011.3 |
| 20260507042319 | 64 | 293 | 4.0 | 4.0 | 0.00 | 0.00 | 0.00 | 59 | 1011.2 |
| 20260507041817 | 64 | 231 | 2.0 | 2.0 | 0.00 | 0.00 | 0.00 | 59 | 1010.8 |
| 20260507041313 | 64 | 232 | 1.0 | 1.0 | 0.00 | 0.00 | 0.00 | 60 | 1010.7 |
| 20260507040811 | 64 | 215 | 1.0 | 1.0 | 0.00 | 0.00 | 0.00 | 60 | 1010.6 |
| 20260507040307 | 64 | 253 | 2.0 | 2.0 | 0.00 | 0.00 | 0.00 | 61 | 1010.4 |
| 20260507035802 | 64 | 242 | 0.0 | 0.0 | 0.00 | 0.20 | 0.20 | 61 | 1010.5 |
| 20260507035258 | 64 | 243 | 1.0 | 1.0 | 0.00 | 0.20 | 0.20 | 60 | 1010.5 |
| 20260507034756 | 64 | 249 | 0.0 | 0.0 | 0.00 | 0.20 | 0.20 | 60 | 1010.7 |
| 20260507034252 | 64 | 244 | 1.0 | 2.0 | 0.00 | 0.20 | 0.20 | 60 | 1010.9 |
| 20260507033751 | 64 | 236 | 2.0 | 3.0 | 0.00 | 0.20 | 0.20 | 60 | 1010.9 |
| 20260507033248 | 64 | 265 | 2.0 | 2.0 | 0.00 | 0.20 | 0.20 | 59 | 1010.9 |
| 20260507032745 | 64 | 269 | 2.0 | 2.0 | 0.00 | 0.20 | 0.20 | 59 | 1010.7 |
| 20260507032241 | 65 | 254 | 1.0 | 2.0 | 0.00 | 0.20 | 0.20 | 59 | 1010.5 |
| 20260507031738 | 65 | 243 | 1.0 | 1.0 | 0.00 | 0.20 | 0.20 | 58 | 1010.6 |
| 20260507031235 | 65 | 265 | 4.0 | 6.0 | 0.00 | 0.20 | 0.20 | 58 | 1010.5 |
| 20260507030731 | 65 | 253 | 2.0 | 3.0 | 0.00 | 0.20 | 0.20 | 57 | 1010.7 |
| 20260507030229 | 66 | 246 | 1.0 | 1.0 | 0.00 | 0.20 | 0.20 | 57 | 1010.7 |
| 20260507025726 | 66 | 279 | 1.0 | 1.0 | 0.00 | 0.20 | 0.20 | 57 | 1010.6 |
| 20260507025223 | 66 | 265 | 1.0 | 2.0 | 0.00 | 0.20 | 0.20 | 57 | 1010.5 |
| 20260507024721 | 66 | 238 | 2.0 | 2.0 | 0.00 | 0.20 | 0.20 | 56 | 1010.3 |
| 20260507024218 | 66 | 267 | 4.0 | 6.0 | 0.00 | 0.20 | 0.20 | 57 | 1010.4 |
| 20260507023713 | 66 | 300 | 3.0 | 3.0 | 0.00 | 0.20 | 0.20 | 59 | 1009.9 |
| 20260507023211 | 67 | 262 | 2.0 | 3.0 | 0.00 | 0.20 | 0.20 | 60 | 1010.0 |
| 20260507022708 | 67 | 254 | 2.0 | 3.0 | 0.00 | 0.20 | 0.20 | 60 | 1010.1 |
| 20260507022204 | 68 | 284 | 2.0 | 3.0 | 0.00 | 0.20 | 0.20 | 62 | 1009.8 |
| 20260507021700 | 68 | 250 | 3.0 | 4.0 | 0.00 | 0.20 | 0.20 | 62 | 1009.8 |
| 20260507021155 | 68 | 249 | 2.0 | 3.0 | 0.00 | 0.20 | 0.20 | 62 | 1010.0 |
| 20260507020655 | 68 | 248 | 1.0 | 2.0 | 0.00 | 0.20 | 0.20 | 63 | 1010.0 |
| 20260507020150 | 68 | 242 | 0.0 | 1.0 | 0.00 | 0.20 | 0.20 | 63 | 1009.7 |
| 20260507015648 | 68 | 242 | 0.0 | 1.0 | 0.00 | 0.20 | 0.20 | 63 | 1009.7 |
| 20260507015145 | 68 | 242 | 0.0 | 0.0 | 0.00 | 0.20 | 0.20 | 63 | 1009.7 |
| 20260507014642 | 68 | 244 | 0.0 | 0.0 | 0.00 | 0.20 | 0.20 | 63 | 1009.9 |
| 20260507014138 | 68 | 243 | 1.0 | 1.0 | 0.00 | 0.20 | 0.20 | 63 | 1009.9 |
| 20260507013635 | 68 | 241 | 1.0 | 1.0 | 0.00 | 0.20 | 0.20 | 63 | 1009.9 |
| 20260507013132 | 68 | 241 | 1.0 | 1.0 | 0.00 | 0.20 | 0.20 | 63 | 1009.9 |
| 20260507012629 | 68 | 241 | 0.0 | 0.0 | 0.00 | 0.20 | 0.20 | 63 | 1010.1 |
| 20260507012124 | 68 | 241 | 1.0 | 1.0 | 0.00 | 0.20 | 0.20 | 62 | 1010.2 |
| 20260507011623 | 68 | 241 | 0.0 | 0.0 | 0.00 | 0.20 | 0.20 | 62 | 1010.0 |
| 20260507011119 | 68 | 243 | 1.0 | 1.0 | 0.00 | 0.20 | 0.20 | 62 | 1010.0 |
| 20260507010614 | 68 | 243 | 0.0 | 0.0 | 0.00 | 0.20 | 0.20 | 62 | 1009.9 |
| 20260507010110 | 68 | 243 | 1.0 | 2.0 | 0.00 | 0.20 | 0.20 | 62 | 1010.0 |
| 20260507005608 | 68 | 240 | 1.0 | 1.0 | 0.00 | 0.20 | 0.20 | 62 | 1009.8 |
| 20260507005103 | 68 | 231 | 1.0 | 1.0 | 0.00 | 0.20 | 0.20 | 62 | 1009.8 |
| 20260507004601 | 68 | 220 | 0.0 | 0.0 | 0.00 | 0.20 | 0.20 | 62 | 1009.9 |
| 20260507004058 | 68 | 219 | 0.0 | 0.0 | 0.00 | 0.20 | 0.20 | 62 | 1009.6 |
| 20260507003554 | 68 | 215 | 0.0 | 0.0 | 0.00 | 0.20 | 0.20 | 62 | 1009.3 |
| 20260507003049 | 68 | 229 | 1.0 | 2.0 | 0.00 | 0.20 | 0.20 | 62 | 1009.8 |
| 20260507002546 | 68 | 210 | 0.0 | 0.0 | 0.00 | 0.20 | 0.20 | 62 | 1009.7 |
| 20260507002042 | 69 | 205 | 0.0 | 0.0 | 0.00 | 0.20 | 0.20 | 62 | 1009.4 |
| 20260507001539 | 69 | 186 | 0.0 | 1.0 | 0.00 | 0.20 | 0.20 | 62 | 1009.3 |
| 20260507001036 | 69 | 215 | 1.0 | 1.0 | 0.00 | 0.20 | 0.20 | 62 | 1009.6 |
| 20260507000532 | 69 | 188 | 1.0 | 1.0 | 0.00 | 0.20 | 0.20 | 62 | 1009.6 |
| 20260507000028 | 69 | 181 | 0.0 | 0.0 | 0.00 | 0.20 | 0.20 | 62 | 1009.5 |
| 20260506235526 | 69 | 184 | 0.0 | 1.0 | 0.00 | 0.20 | 0.20 | 61 | 1009.3 |
| 20260506235021 | 69 | 222 | 0.0 | 0.0 | 0.00 | 0.20 | 0.20 | 61 | 1009.6 |
| 20260506234519 | 69 | 222 | 2.0 | 2.0 | 0.00 | 0.20 | 0.20 | 61 | 1009.2 |
| 20260506234016 | 69 | 222 | 0.0 | 1.0 | 0.00 | 0.20 | 0.20 | 61 | 1009.2 |
| 20260506233512 | 69 | 244 | 0.0 | 0.0 | 0.00 | 0.20 | 0.20 | 61 | 1009.3 |
| 20260506233009 | 69 | 251 | 3.0 | 4.0 | 0.00 | 0.20 | 0.20 | 61 | 1009.3 |
| 20260506232505 | 69 | 251 | 3.0 | 3.0 | 0.00 | 0.20 | 0.20 | 60 | 1008.9 |
| 20260506232001 | 69 | 233 | 1.0 | 2.0 | 0.00 | 0.20 | 0.20 | 60 | 1009.0 |
| 20260506231458 | 69 | 228 | 1.0 | 1.0 | 0.00 | 0.20 | 0.20 | 60 | 1009.1 |
| 20260506230956 | 69 | 261 | 3.0 | 4.0 | 0.00 | 0.20 | 0.20 | 60 | 1009.3 |
| 20260506230452 | 70 | 244 | 1.0 | 1.0 | 0.00 | 0.20 | 0.20 | 60 | 1009.1 |
| 20260506225949 | 70 | 241 | 3.0 | 4.0 | 0.00 | 0.20 | 0.20 | 60 | 1009.0 |
| 20260506225446 | 70 | 235 | 2.0 | 3.0 | 0.00 | 0.20 | 0.20 | 59 | 1008.8 |
| 20260506224943 | 70 | 222 | 1.0 | 1.0 | 0.00 | 0.20 | 0.20 | 60 | 1008.8 |
| 20260506224440 | 70 | 250 | 2.0 | 4.0 | 0.00 | 0.20 | 0.20 | 59 | 1008.8 |
| 20260506223936 | 70 | 227 | 0.0 | 1.0 | 0.00 | 0.20 | 0.20 | 60 | 1008.6 |
| 20260506223432 | 70 | 227 | 0.0 | 1.0 | 0.00 | 0.20 | 0.20 | 59 | 1008.8 |
| 20260506222930 | 70 | 274 | 3.0 | 4.0 | 0.00 | 0.20 | 0.20 | 59 | 1008.9 |
| 20260506222426 | 70 | 214 | 1.0 | 1.0 | 0.00 | 0.20 | 0.20 | 59 | 1008.9 |
| 20260506221923 | 70 | 218 | 1.0 | 2.0 | 0.00 | 0.20 | 0.20 | 59 | 1009.0 |
| 20260506221420 | 70 | 278 | 6.0 | 7.0 | 0.00 | 0.20 | 0.20 | 59 | 1008.9 |
| 20260506220918 | 71 | 214 | 1.0 | 1.0 | 0.00 | 0.20 | 0.20 | 59 | 1009.0 |
| 20260506220413 | 70 | 208 | 1.0 | 2.0 | 0.00 | 0.20 | 0.20 | 59 | 1008.9 |
| 20260506215909 | 71 | 212 | 0.0 | 1.0 | 0.00 | 0.20 | 0.20 | 58 | 1008.9 |
| 20260506215406 | 71 | 244 | 1.0 | 3.0 | 0.00 | 0.20 | 0.20 | 58 | 1009.2 |
| 20260506214856 | 71 | 256 | 2.0 | 3.0 | 0.00 | 0.20 | 0.20 | 58 | 1008.8 |
| 20260506214354 | 71 | 212 | 1.0 | 1.0 | 0.00 | 0.20 | 0.20 | 58 | 1008.8 |
| 20260506213851 | 71 | 244 | 3.0 | 4.0 | 0.00 | 0.20 | 0.20 | 57 | 1008.7 |
| 20260506213348 | 71 | 246 | 6.0 | 8.0 | 0.00 | 0.20 | 0.20 | 57 | 1008.8 |
| 20260506212845 | 71 | 230 | 2.0 | 3.0 | 0.00 | 0.20 | 0.20 | 57 | 1008.6 |
| 20260506212341 | 71 | 217 | 1.0 | 1.0 | 0.00 | 0.20 | 0.20 | 57 | 1008.6 |
| 20260506211836 | 72 | 220 | 2.0 | 3.0 | 0.00 | 0.20 | 0.20 | 57 | 1008.4 |
| 20260506211332 | 72 | 192 | 1.0 | 2.0 | 0.00 | 0.20 | 0.20 | 56 | 1008.8 |
| 20260506210830 | 71 | 229 | 1.0 | 1.0 | 0.00 | 0.20 | 0.20 | 57 | 1008.6 |
| 20260506210327 | 71 | 244 | 6.0 | 7.0 | 0.00 | 0.20 | 0.20 | 57 | 1008.6 |
| 20260506205824 | 71 | 237 | 2.0 | 3.0 | 0.00 | 0.20 | 0.20 | 57 | 1008.4 |
| 20260506205320 | 70 | 232 | 1.0 | 1.0 | 0.00 | 0.20 | 0.20 | 58 | 1008.4 |
| 20260506204816 | 70 | 244 | 7.0 | 8.0 | 0.00 | 0.20 | 0.20 | 57 | 1008.4 |
| 20260506204314 | 70 | 283 | 6.0 | 8.0 | 0.00 | 0.20 | 0.20 | 58 | 1008.5 |
| 20260506203812 | 71 | 258 | 5.0 | 6.0 | 0.00 | 0.20 | 0.20 | 57 | 1008.7 |
| 20260506203309 | 71 | 248 | 4.0 | 4.0 | 0.00 | 0.20 | 0.20 | 57 | 1008.6 |
| 20260506202806 | 71 | 209 | 3.0 | 4.0 | 0.00 | 0.20 | 0.20 | 57 | 1008.5 |
| 20260506202305 | 71 | 256 | 6.0 | 7.0 | 0.00 | 0.20 | 0.20 | 57 | 1008.3 |
| 20260506201758 | 72 | 247 | 6.0 | 8.0 | 0.00 | 0.20 | 0.20 | 56 | 1008.5 |
| 20260506201256 | 71 | 248 | 4.0 | 6.0 | 0.00 | 0.20 | 0.20 | 57 | 1008.3 |
| 20260506200754 | 71 | 220 | 4.0 | 6.0 | 0.00 | 0.20 | 0.20 | 56 | 1008.5 |
| 20260506200249 | 72 | 265 | 8.0 | 11.0 | 0.00 | 0.20 | 0.20 | 56 | 1008.4 |
| 20260506195745 | 72 | 244 | 3.0 | 4.0 | 0.00 | 0.20 | 0.20 | 56 | 1008.3 |
| 20260506195242 | 72 | 208 | 2.0 | 3.0 | 0.00 | 0.20 | 0.20 | 56 | 1008.4 |
| 20260506194739 | 72 | 253 | 3.0 | 6.0 | 0.00 | 0.20 | 0.20 | 56 | 1008.4 |
| 20260506194235 | 72 | 213 | 2.0 | 3.0 | 0.00 | 0.20 | 0.20 | 56 | 1008.6 |
| 20260506193734 | 71 | 249 | 3.0 | 4.0 | 0.00 | 0.20 | 0.20 | 56 | 1008.4 |
| 20260506193230 | 71 | 246 | 2.0 | 3.0 | 0.00 | 0.20 | 0.20 | 56 | 1008.6 |
| 20260506192726 | 71 | 276 | 2.0 | 3.0 | 0.00 | 0.20 | 0.20 | 57 | 1008.5 |
| 20260506192223 | 71 | 242 | 3.0 | 3.0 | 0.00 | 0.20 | 0.20 | 56 | 1008.6 |
| 20260506191720 | 71 | 277 | 4.0 | 7.0 | 0.00 | 0.20 | 0.20 | 56 | 1008.6 |
| 20260506191216 | 71 | 211 | 1.0 | 1.0 | 0.00 | 0.20 | 0.20 | 57 | 1008.7 |
| 20260506190714 | 70 | 252 | 6.0 | 7.0 | 0.00 | 0.20 | 0.20 | 57 | 1008.8 |
| 20260506190210 | 69 | 253 | 5.0 | 7.0 | 0.00 | 0.20 | 0.20 | 57 | 1008.8 |
| 20260506185707 | 69 | 249 | 7.0 | 9.0 | 0.00 | 0.20 | 0.20 | 57 | 1008.9 |
| 20260506185203 | 69 | 242 | 2.0 | 2.0 | 0.00 | 0.20 | 0.20 | 58 | 1008.9 |
| 20260506184701 | 69 | 229 | 3.0 | 4.0 | 0.00 | 0.20 | 0.20 | 58 | 1009.2 |
| 20260506184158 | 69 | 268 | 10.0 | 11.0 | 0.00 | 0.20 | 0.20 | 58 | 1009.2 |
| 20260506183655 | 69 | 245 | 5.0 | 8.0 | 0.00 | 0.20 | 0.20 | 58 | 1008.9 |
| 20260506183151 | 69 | 245 | 5.0 | 6.0 | 0.00 | 0.20 | 0.20 | 58 | 1009.1 |
| 20260506182649 | 69 | 173 | 2.0 | 3.0 | 0.00 | 0.20 | 0.20 | 58 | 1009.2 |
| 20260506182145 | 68 | 245 | 4.0 | 6.0 | 0.00 | 0.20 | 0.20 | 59 | 1009.1 |
| 20260506181643 | 69 | 219 | 2.0 | 3.0 | 0.00 | 0.20 | 0.20 | 58 | 1009.3 |
| 20260506181140 | 68 | 241 | 1.0 | 2.0 | 0.00 | 0.20 | 0.20 | 59 | 1009.3 |
| 20260506180637 | 68 | 242 | 7.0 | 8.0 | 0.00 | 0.20 | 0.20 | 58 | 1009.1 |
| 20260506180133 | 68 | 263 | 5.0 | 7.0 | 0.00 | 0.20 | 0.20 | 59 | 1009.5 |
| 20260506175630 | 68 | 236 | 9.0 | 13.0 | 0.00 | 0.20 | 0.20 | 59 | 1009.4 |
| 20260506175126 | 68 | 264 | 4.0 | 6.0 | 0.00 | 0.20 | 0.20 | 59 | 1009.3 |
| 20260506174625 | 68 | 253 | 3.0 | 4.0 | 0.00 | 0.20 | 0.20 | 59 | 1009.6 |
| 20260506174121 | 67 | 262 | 3.0 | 4.0 | 0.00 | 0.20 | 0.20 | 59 | 1009.5 |
| 20260506173619 | 67 | 231 | 1.0 | 2.0 | 0.00 | 0.20 | 0.20 | 60 | 1009.0 |
| 20260506173115 | 66 | 151 | 2.0 | 3.0 | 0.00 | 0.20 | 0.20 | 60 | 1009.4 |
| 20260506172613 | 66 | 201 | 2.0 | 3.0 | 0.00 | 0.20 | 0.20 | 60 | 1009.5 |
| 20260506172109 | 65 | 228 | 7.0 | 9.0 | 0.00 | 0.20 | 0.20 | 61 | 1009.4 |
| 20260506171607 | 65 | 204 | 2.0 | 2.0 | 0.00 | 0.20 | 0.20 | 62 | 1009.6 |
| 20260506171104 | 64 | 109 | 2.0 | 4.0 | 0.00 | 0.20 | 0.20 | 64 | 1009.5 |
| 20260506170601 | 64 | 253 | 3.0 | 6.0 | 0.00 | 0.20 | 0.20 | 67 | 1009.5 |
| 20260506170059 | 63 | 221 | 2.0 | 2.0 | 0.00 | 0.20 | 0.20 | 71 | 1009.7 |
| 20260506165557 | 63 | 236 | 4.0 | 6.0 | 0.00 | 0.20 | 0.20 | 74 | 1009.5 |
| 20260506165053 | 63 | 224 | 2.0 | 2.0 | 0.00 | 0.20 | 0.20 | 76 | 1009.8 |
| 20260506164550 | 63 | 218 | 6.0 | 7.0 | 0.00 | 0.20 | 0.20 | 77 | 1009.9 |
| 20260506164048 | 63 | 239 | 5.0 | 7.0 | 0.00 | 0.20 | 0.20 | 77 | 1010.0 |
| 20260506163543 | 62 | 225 | 1.0 | 1.0 | 0.00 | 0.20 | 0.20 | 77 | 1010.0 |
| 20260506163039 | 62 | 218 | 3.0 | 3.0 | 0.00 | 0.20 | 0.20 | 77 | 1009.8 |
| 20260506162536 | 62 | 228 | 2.0 | 2.0 | 0.00 | 0.20 | 0.20 | 77 | 1009.7 |
| 20260506162033 | 63 | 199 | 1.0 | 2.0 | 0.00 | 0.20 | 0.20 | 77 | 1009.8 |
| 20260506161531 | 62 | 176 | 1.0 | 1.0 | 0.00 | 0.20 | 0.20 | 77 | 1009.7 |
| 20260506161027 | 62 | 261 | 4.0 | 8.0 | 0.00 | 0.20 | 0.20 | 77 | 1009.9 |
| 20260506160525 | 62 | 247 | 3.0 | 7.0 | 0.00 | 0.20 | 0.20 | 77 | 1010.0 |
| 20260506160022 | 62 | 206 | 0.0 | 1.0 | 0.00 | 0.20 | 0.20 | 76 | 1010.1 |
| 20260506155520 | 62 | 223 | 1.0 | 1.0 | 0.00 | 0.20 | 0.20 | 76 | 1010.2 |
| 20260506153651 | 62 | 199 | 0.0 | 0.0 | 0.00 | 0.20 | 0.20 | 75 | 1010.0 |
| 20260506153149 | 62 | 167 | 0.0 | 0.0 | 0.00 | 0.20 | 0.20 | 75 | 1010.0 |
| 20260506152645 | 62 | 209 | 0.0 | 0.0 | 0.00 | 0.20 | 0.20 | 74 | 1010.3 |
| 20260506152143 | 62 | 206 | 2.0 | 2.0 | 0.07 | 0.20 | 0.20 | 73 | 1010.4 |
| 20260506151642 | 62 | 254 | 1.0 | 1.0 | 0.07 | 0.20 | 0.20 | 73 | 1010.5 |
| 20260506151138 | 62 | 153 | 2.0 | 4.0 | 0.07 | 0.20 | 0.20 | 72 | 1010.6 |
| 20260506150635 | 61 | 195 | 1.0 | 2.0 | 0.00 | 0.19 | 0.19 | 72 | 1010.8 |
| 20260506150132 | 62 | 201 | 0.0 | 0.0 | 0.05 | 0.19 | 0.19 | 71 | 1010.8 |
| 20260506145629 | 62 | 202 | 0.0 | 0.0 | 0.17 | 0.19 | 0.19 | 70 | 1010.9 |
| 20260506145125 | 61 | 204 | 0.0 | 0.0 | 0.24 | 0.18 | 0.18 | 69 | 1010.8 |
| 20260506144623 | 62 | 197 | 0.0 | 1.0 | 0.24 | 0.16 | 0.16 | 68 | 1011.0 |
| 20260506144119 | 62 | 218 | 1.0 | 2.0 | 0.19 | 0.14 | 0.14 | 68 | 1011.0 |
| 20260506143617 | 62 | 206 | 1.0 | 2.0 | 0.07 | 0.11 | 0.11 | 67 | 1010.7 |
| 20260506143115 | 62 | 206 | 0.0 | 0.0 | 0.12 | 0.11 | 0.11 | 66 | 1010.8 |
| 20260506142613 | 62 | 182 | 0.0 | 0.0 | 0.05 | 0.10 | 0.10 | 66 | 1010.8 |
| 20260506142111 | 62 | 180 | 1.0 | 2.0 | 0.12 | 0.09 | 0.09 | 65 | 1010.7 |
| 20260506141608 | 62 | 204 | 0.0 | 0.0 | 0.19 | 0.09 | 0.09 | 65 | 1010.7 |
| 20260506141107 | 63 | 201 | 0.0 | 0.0 | 0.12 | 0.07 | 0.07 | 64 | 1010.8 |
| 20260506140604 | 63 | 198 | 0.0 | 0.0 | 0.12 | 0.06 | 0.06 | 64 | 1010.9 |
| 20260506140101 | 63 | 199 | 0.0 | 1.0 | 0.12 | 0.05 | 0.05 | 63 | 1010.9 |
| 20260506135558 | 63 | 200 | 0.0 | 0.0 | 0.12 | 0.05 | 0.05 | 63 | 1011.1 |
| 20260506135054 | 63 | 189 | 0.0 | 0.0 | 0.07 | 0.03 | 0.03 | 63 | 1011.2 |
| 20260506134551 | 64 | 196 | 1.0 | 2.0 | 0.12 | 0.03 | 0.03 | 63 | 1011.3 |
| 20260506134046 | 64 | 193 | 1.0 | 2.0 | 0.05 | 0.02 | 0.02 | 62 | 1011.5 |
| 20260506133544 | 64 | 154 | 1.0 | 1.0 | 0.00 | 0.01 | 0.01 | 62 | 1011.3 |
| 20260506133041 | 65 | 44 | 2.0 | 3.0 | 0.07 | 0.01 | 0.01 | 62 | 1011.0 |
| 20260506132538 | 65 | 212 | 2.0 | 4.0 | 0.07 | 0.01 | 0.01 | 61 | 1011.0 |
| 20260506132035 | 65 | 225 | 2.0 | 2.0 | 0.00 | 0.00 | 0.00 | 60 | 1010.8 |
| 20260506131532 | 65 | 212 | 0.0 | 0.0 | 0.00 | 0.00 | 0.00 | 60 | 1010.9 |
| 20260506131028 | 65 | 261 | 2.0 | 3.0 | 0.00 | 0.00 | 0.00 | 60 | 1010.8 |
| 20260506130525 | 66 | 229 | 2.0 | 2.0 | 0.00 | 0.00 | 0.00 | 60 | 1010.6 |
| 20260506130023 | 66 | 212 | 0.0 | 0.0 | 0.00 | 0.00 | 0.00 | 60 | 1010.5 |
| 20260506125521 | 66 | 168 | 1.0 | 2.0 | 0.00 | 0.00 | 0.00 | 59 | 1010.4 |
| 20260506125019 | 66 | 209 | 0.0 | 1.0 | 0.00 | 0.00 | 0.00 | 59 | 1010.3 |
| 20260506124516 | 66 | 199 | 0.0 | 0.0 | 0.00 | 0.00 | 0.00 | 58 | 1010.5 |
| 20260506124014 | 66 | 241 | 2.0 | 3.0 | 0.00 | 0.00 | 0.00 | 58 | 1010.7 |
| 20260506123512 | 66 | 216 | 1.0 | 2.0 | 0.00 | 0.00 | 0.00 | 58 | 1010.6 |
| 20260506123009 | 66 | 225 | 0.0 | 0.0 | 0.00 | 0.00 | 0.00 | 58 | 1010.8 |
| 20260506122506 | 66 | 223 | 0.0 | 1.0 | 0.00 | 0.00 | 0.00 | 58 | 1011.0 |
| 20260506122004 | 66 | 226 | 1.0 | 1.0 | 0.00 | 0.00 | 0.00 | 58 | 1011.1 |
| 20260506121501 | 66 | 232 | 3.0 | 4.0 | 0.00 | 0.00 | 0.00 | 57 | 1011.1 |
| 20260506120957 | 66 | 209 | 0.0 | 0.0 | 0.00 | 0.00 | 0.00 | 57 | 1011.0 |
| 20260506120455 | 66 | 219 | 1.0 | 2.0 | 0.00 | 0.00 | 0.00 | 56 | 1011.1 |
| 20260506115952 | 66 | 197 | 1.0 | 1.0 | 0.00 | 0.00 | 0.00 | 56 | 1011.1 |
| 20260506115450 | 66 | 219 | 2.0 | 3.0 | 0.00 | 0.00 | 0.00 | 55 | 1010.8 |
| 20260506114948 | 66 | 194 | 2.0 | 4.0 | 0.00 | 0.00 | 0.00 | 55 | 1010.8 |
| 20260506114446 | 67 | 205 | 2.0 | 4.0 | 0.00 | 0.00 | 0.00 | 55 | 1010.6 |
| 20260506113944 | 67 | 203 | 1.0 | 2.0 | 0.00 | 0.00 | 0.00 | 55 | 1010.7 |
| 20260506113442 | 67 | 211 | 0.0 | 1.0 | 0.00 | 0.00 | 0.00 | 55 | 1010.6 |
| 20260506112938 | 66 | 221 | 3.0 | 4.0 | 0.00 | 0.00 | 0.00 | 55 | 1010.6 |
| 20260506112436 | 66 | 193 | 1.0 | 1.0 | 0.00 | 0.00 | 0.00 | 56 | 1010.3 |
| 20260506111932 | 66 | 190 | 1.0 | 1.0 | 0.00 | 0.00 | 0.00 | 56 | 1010.5 |
| 20260506111431 | 66 | 228 | 2.0 | 3.0 | 0.00 | 0.00 | 0.00 | 56 | 1010.4 |
| 20260506110927 | 66 | 209 | 1.0 | 2.0 | 0.00 | 0.00 | 0.00 | 57 | 1010.2 |
| 20260506110425 | 65 | 227 | 2.0 | 3.0 | 0.00 | 0.00 | 0.00 | 57 | 1010.3 |
| 20260506105921 | 65 | 267 | 1.0 | 2.0 | 0.00 | 0.00 | 0.00 | 57 | 1010.1 |
| 20260506105418 | 65 | 204 | 1.0 | 1.0 | 0.00 | 0.00 | 0.00 | 57 | 1010.2 |
| 20260506104915 | 65 | 227 | 1.0 | 2.0 | 0.00 | 0.00 | 0.00 | 57 | 1010.4 |
| 20260506104413 | 65 | 197 | 1.0 | 1.0 | 0.00 | 0.00 | 0.00 | 56 | 1010.2 |
| 20260506103911 | 65 | 161 | 2.0 | 3.0 | 0.00 | 0.00 | 0.00 | 56 | 1010.2 |
| 20260506103408 | 65 | 221 | 4.0 | 4.0 | 0.00 | 0.00 | 0.00 | 56 | 1010.0 |
| 20260506102905 | 65 | 236 | 3.0 | 4.0 | 0.00 | 0.00 | 0.00 | 56 | 1010.0 |
| 20260506102403 | 65 | 207 | 1.0 | 1.0 | 0.00 | 0.00 | 0.00 | 57 | 1010.2 |
| 20260506101900 | 65 | 208 | 1.0 | 2.0 | 0.00 | 0.00 | 0.00 | 57 | 1010.1 |
| 20260506101356 | 65 | 210 | 1.0 | 1.0 | 0.00 | 0.00 | 0.00 | 56 | 1010.1 |
| 20260506100854 | 66 | 215 | 0.0 | 0.0 | 0.00 | 0.00 | 0.00 | 56 | 1009.9 |
| 20260506100352 | 66 | 227 | 3.0 | 4.0 | 0.00 | 0.00 | 0.00 | 56 | 1010.2 |
| 20260506095850 | 66 | 228 | 4.0 | 7.0 | 0.00 | 0.00 | 0.00 | 56 | 1010.0 |
| 20260506095348 | 65 | 213 | 3.0 | 4.0 | 0.00 | 0.00 | 0.00 | 56 | 1010.2 |
| 20260506094844 | 65 | 231 | 2.0 | 3.0 | 0.00 | 0.00 | 0.00 | 56 | 1010.2 |
| 20260506094343 | 66 | 210 | 0.0 | 1.0 | 0.00 | 0.00 | 0.00 | 56 | 1010.0 |
| 20260506093840 | 66 | 190 | 1.0 | 1.0 | 0.00 | 0.00 | 0.00 | 56 | 1010.2 |
| 20260506093337 | 66 | 182 | 0.0 | 0.0 | 0.00 | 0.00 | 0.00 | 56 | 1010.2 |
| 20260506092835 | 66 | 167 | 3.0 | 4.0 | 0.00 | 0.00 | 0.00 | 56 | 1010.0 |
| 20260506092333 | 66 | 229 | 1.0 | 2.0 | 0.00 | 0.00 | 0.00 | 56 | 1010.1 |
| 20260506091829 | 66 | 237 | 2.0 | 2.0 | 0.00 | 0.00 | 0.00 | 55 | 1010.2 |
| 20260506091327 | 66 | 222 | 1.0 | 2.0 | 0.00 | 0.00 | 0.00 | 55 | 1010.4 |
| 20260506090825 | 66 | 248 | 2.0 | 3.0 | 0.00 | 0.00 | 0.00 | 55 | 1010.1 |
| 20260506090322 | 67 | 177 | 1.0 | 1.0 | 0.00 | 0.00 | 0.00 | 54 | 1010.2 |
| 20260506085818 | 67 | 80 | 2.0 | 2.0 | 0.00 | 0.00 | 0.00 | 54 | 1010.3 |
| 20260506085315 | 67 | 236 | 3.0 | 4.0 | 0.00 | 0.00 | 0.00 | 54 | 1010.3 |
| 20260506084811 | 67 | 195 | 0.0 | 0.0 | 0.00 | 0.00 | 0.00 | 54 | 1010.4 |
| 20260506084308 | 67 | 184 | 1.0 | 2.0 | 0.00 | 0.00 | 0.00 | 53 | 1010.4 |
| 20260506083805 | 67 | 181 | 2.0 | 4.0 | 0.00 | 0.00 | 0.00 | 53 | 1010.3 |
| 20260506083302 | 68 | 220 | 4.0 | 8.0 | 0.00 | 0.00 | 0.00 | 53 | 1010.3 |
| 20260506082800 | 68 | 242 | 1.0 | 1.0 | 0.00 | 0.00 | 0.00 | 53 | 1010.1 |
| 20260506082255 | 68 | 178 | 1.0 | 1.0 | 0.00 | 0.00 | 0.00 | 52 | 1010.3 |
| 20260506081753 | 68 | 170 | 1.0 | 2.0 | 0.00 | 0.00 | 0.00 | 52 | 1010.3 |
| 20260506081250 | 68 | 241 | 1.0 | 2.0 | 0.00 | 0.00 | 0.00 | 52 | 1010.2 |
| 20260506080748 | 68 | 184 | 0.0 | 1.0 | 0.00 | 0.00 | 0.00 | 52 | 1010.2 |
| 20260506080244 | 68 | 197 | 0.0 | 1.0 | 0.00 | 0.00 | 0.00 | 51 | 1010.3 |